Regional Weather Roundup
Issued by NWS

Home | Current Version | Previous Version | Graphics & Text | Print | Product List | Glossary Off
Versions: 1 2 3 4 5 6 7 8 9 10 11 12 13 14 15 16 17 18 19 20 21 22 23 24 25 26 27 28 29 30 31 32 33 34 35 36 37 38 39 40 41 42 43 44 45 46 47 48 49 50

000
ASUS45 KABQ 141510
RWRNM
WEATHER ROUNDUP FOR NEW MEXICO
NATIONAL WEATHER SERVICE ALBUQUERQUE NM
900 AM MDT MON JUL 14 2014

NOTE: "FAIR" MEANS FEW OR NO CLOUDS BELOW 12,000 FEET AGL WITH NO
       SIGNIFICANT WEATHER OR OBSTRUCTIONS TO VISION.

      THIS PRODUCT IS RELEASED AS TWO VERSIONS.  ONE VERSION NEAR
      THE TOP OF THE HOUR CONTAINING PRELIMINARY DATA FROM ALBUQUERQUE
      AND OTHER STATIONS.  A FINAL VERSION WITH ADDITIONAL DATA IS
      ISSUED ABOUT 10 MINUTES AFTER THE HOUR.

NMZ501-503-504-510>518-141600-
NORTHWEST PLATEAU/NORTHCENTRAL MOUNTAINS

CITY           SKY/WX    TMP DP  RH WIND       PRES   REMARKS
FARMINGTON     SUNNY     73  54  51 SE7       30.31R
LOS ALAMOS     MOSUNNY   67  50  54 N3        30.44S
SANTA FE       MOSUNNY   67  56  67 N14       30.36F
TAOS             N/A    N/A N/A N/A MISG        N/A
ANGEL FIRE     FAIR      58  53  81 CALM      30.52R

$$
NMZ402-403-502-505>509-141600-
WESTCENTRAL MOUNTAINS/SOUTHWEST MOUNTAINS

CITY           SKY/WX    TMP DP  RH WIND       PRES   REMARKS
GALLUP         PTSUNNY   65  57  75 CALM      30.38R
GRANTS         MOSUNNY   69  56  63 SE5       30.40S
SILVER CITY    PTSUNNY   75  54  46 E3        30.31R

$$
NMZ407-409-411-412-141600-
SOUTHERN DESERTS

CITY           SKY/WX    TMP DP  RH WIND       PRES   REMARKS
LORDSBURG      FAIR      72  59  64 NE3       30.21S
DEMING         MOSUNNY   80  55  42 NE18G28   30.20S
LAS CRUCES     PTSUNNY   80  54  40 N7        30.22S
HOLLOMAN AFB   MOSUNNY   82  55  38 E5        30.18F
ALAMOGORDO     MOSUNNY   77  57  50 CALM      30.20F
T OR C         PTSUNNY   76  57  51 W13       30.26S

$$
NMZ519>523-141600-
CENTRAL VALLEYS/CENTRAL HIGHLANDS

CITY           SKY/WX    TMP DP  RH WIND       PRES   REMARKS
ALBUQUERQUE    MOSUNNY   70  56  61 S3        30.33R
DOUBLE EAGLE   MOSUNNY   70  54  56 VRB6      30.36R
MORIARTY ARPT  FAIR      66  55  67 N5        30.37F
CLINES CORNERS MOSUNNY   64  52  64 NW13      30.40R
BELEN          FAIR      74  57  54 NE3       30.30S
SOCORRO        FAIR      69  60  71 CALM      30.28R

$$
NMZ524>526-539-540-141600-
SOUTHCENTRAL MOUNTAINS

CITY           SKY/WX    TMP DP  RH WIND       PRES   REMARKS
RUIDOSO        PTSUNNY   68  52  56 N6        30.42S

$$
NMZ527>531-141600-
NORTHEAST HIGHLANDS/NORTHEAST PLAINS

CITY           SKY/WX    TMP DP  RH WIND       PRES   REMARKS
LAS VEGAS      PTSUNNY   67  54  63 NE3       30.40R
RATON          CLOUDY    68  57  68 E3        30.33R
CLAYTON        PTSUNNY   79  58  48 N10       30.26S

$$
NMZ532>537-141600-
EASTCENTRAL PLAINS

CITY           SKY/WX    TMP DP  RH WIND       PRES   REMARKS
TUCUMCARI      MOSUNNY   77  59  53 SW5       30.19S
CANNON AFB     SUNNY     75  62  64 N2        30.23R
CLOVIS AIRPORT   N/A    N/A N/A N/A MISG        N/A

$$
NMZ028-029-538-141600-
SOUTHEAST PLAINS

CITY           SKY/WX    TMP DP  RH WIND       PRES   REMARKS
ROSWELL        SUNNY     79  59  50 N8        30.19R
ARTESIA        SUNNY     77  57  50 NE7       30.19R
CARLSBAD       SUNNY     82  56  40 N7        30.15S
HOBBS          SUNNY     81  55  41 S6        30.20R


$$


USA.gov is the U.S. government's official web portal to all federal, state and local government web resources and services.